Tracking 20241 objects as of 25-Jan-2020
HD Live streaming from Space Station
objects crossing your sky now

COSMOS 2251 DEB

Track COSMOS 2251 DEB now!
10-day predictions


NORAD ID: 36470
Int'l Code: 1993-036BBV
Perigee: 687.4 km
Apogee: 783.3 km
Inclination: 73.9 °
Period: 99.4 minutes
Semi major axis: 7106 km
RCS: 0.003 m2 (small)
Launch date: June 16, 1993
Source: Commonwealth of Independent States (former USSR) (CIS)
Launch site: PLESETSK MISSILE AND SPACE COMPLEX (PKMTR)

Note: This is SATELLITE DEBRIS
aabbcc
Your satellite tracking list
Your tracking list is empty




NASA's NSSDC Master Catalog

Two Line Element Set (TLE):
1 36470U 93036BBV 20024.55554137  .00000559  00000-0  15048-3 0  9994
2 36470  73.8680  88.3985 0067448 348.7311  11.2333 14.49219979542022
Source of the keplerian elements: AFSPC